User: anonymous   Login
Location: Brno
(49.2000°N, 16.6330°E)
Time: 00:33:07
(UTC+02:00)
Language:

RESURS DK-1 - Orbit

View from above orbital plane
View from above orbital plane
View from above satellite
View from above satellite

Ground track
Ground track

The orbit data is extracted from the following two-line orbital elements,

1 29228U 06021A   16121.55004120  .00000428  00000-0  40113-4 0  9997
2 29228  69.9375  67.7089 0007805 255.3365 104.6939 15.01877380546142
Epoch (UTC): 30 April 2016 13:12:03
Eccentricity: 0.0007805
inclination: 69.9375°
perigee height: 555 km
apogee height: 566 km
right ascension of ascending node: 67.7089°
argument of perigee: 255.3365°
revolutions per day: 15.01877380
mean anomaly at epoch: 104.6939°
orbit number at epoch: 54614

The dashed part of the orbit path shows where the satellite is in the earth's shadow,  

DLR